Time,TemperatureF,DewpointF,PressureIn,WindDirection,WindDirectionDegrees,WindSpeedMPH,WindSpeedGustMPH,Humidity,HourlyPrecipIn,Conditions,Clouds,dailyrainin,SoftwareType,DateUTC
2013-09-07 00:00:00,67.1,50.9,29.84,North,0,0.0,0.0,56,0.00,,,-99.99,Custom,2013-09-07 07:00:00,
2013-09-07 00:01:00,67.1,50.9,29.84,North,0,0.0,0.0,56,0.00,,,-99.99,Custom,2013-09-07 07:01:00,
2013-09-07 00:05:00,66.9,51.2,29.84,North,0,0.0,0.0,57,0.00,,,-99.99,Custom,2013-09-07 07:05:00,
2013-09-07 00:11:00,66.9,51.2,29.84,North,0,0.0,0.0,57,0.00,,,-99.99,Custom,2013-09-07 07:11:00,
2013-09-07 00:15:00,66.5,51.3,29.84,North,0,0.0,0.0,58,0.00,,,-99.99,Custom,2013-09-07 07:15:00,
2013-09-07 00:16:00,66.5,51.3,29.84,North,0,0.0,0.0,58,0.00,,,-99.99,Custom,2013-09-07 07:16:00,
2013-09-07 00:20:00,66.2,51.0,29.84,North,0,0.0,0.0,58,0.00,,,-99.99,Custom,2013-09-07 07:20:00,
2013-09-07 00:26:00,66.2,51.0,29.84,North,0,0.0,0.0,58,0.00,,,-99.99,Custom,2013-09-07 07:26:00,
2013-09-07 00:30:00,65.9,51.6,29.84,North,0,0.0,0.0,60,0.00,,,-99.99,Custom,2013-09-07 07:30:00,
2013-09-07 00:35:00,65.7,51.5,29.84,North,0,0.0,0.0,60,0.00,,,-99.99,Custom,2013-09-07 07:35:00,
2013-09-07 00:36:00,65.9,51.6,29.84,North,0,0.0,0.0,60,0.00,,,-99.99,Custom,2013-09-07 07:36:00,
2013-09-07 00:40:00,65.5,51.3,29.84,North,0,0.0,0.0,60,0.00,,,-99.99,Custom,2013-09-07 07:40:00,
2013-09-07 00:46:00,65.5,51.3,29.84,North,0,0.0,0.0,60,0.00,,,-99.99,Custom,2013-09-07 07:46:00,
2013-09-07 00:50:00,65.2,51.0,29.84,North,0,0.0,0.0,60,0.00,,,-99.99,Custom,2013-09-07 07:50:00,
2013-09-07 00:51:00,65.2,51.0,29.84,North,0,0.0,0.0,60,0.00,,,-99.99,Custom,2013-09-07 07:51:00,
2013-09-07 00:55:00,65.0,51.2,29.84,North,0,0.0,0.0,61,0.00,,,-99.99,Custom,2013-09-07 07:55:00,
2013-09-07 01:01:00,65.0,51.2,29.84,North,0,0.0,0.0,61,0.00,,,-99.99,Custom,2013-09-07 08:01:00,
2013-09-07 01:05:00,64.6,50.9,29.84,North,0,0.0,0.0,61,0.00,,,-99.99,Custom,2013-09-07 08:05:00,
2013-09-07 01:06:00,64.6,50.9,29.84,North,0,0.0,0.0,61,0.00,,,-99.99,Custom,2013-09-07 08:06:00,
2013-09-07 01:10:00,64.5,50.8,29.84,North,0,0.0,0.0,61,0.00,,,-99.99,Custom,2013-09-07 08:10:00,
2013-09-07 01:11:00,64.6,50.9,29.84,North,0,0.0,0.0,61,0.00,,,-99.99,Custom,2013-09-07 08:11:00,
2013-09-07 01:15:00,64.4,50.7,29.84,North,0,0.0,0.0,61,0.00,,,-99.99,Custom,2013-09-07 08:15:00,
2013-09-07 01:21:00,64.4,50.7,29.84,North,0,0.0,0.0,61,0.00,,,-99.99,Custom,2013-09-07 08:21:00,
2013-09-07 01:25:00,64.1,49.9,29.84,North,0,0.0,0.0,60,0.00,,,-99.99,Custom,2013-09-07 08:25:00,
2013-09-07 01:31:00,64.1,49.9,29.84,North,0,0.0,0.0,60,0.00,,,-99.99,Custom,2013-09-07 08:31:00,
2013-09-07 01:35:00,63.8,51.0,29.84,North,0,0.0,0.0,63,0.00,,,-99.99,Custom,2013-09-07 08:35:00,
2013-09-07 01:36:00,63.8,51.0,29.84,North,0,0.0,0.0,63,0.00,,,-99.99,Custom,2013-09-07 08:36:00,
2013-09-07 01:40:00,63.7,51.7,29.84,North,0,0.0,0.0,65,0.00,,,-99.99,Custom,2013-09-07 08:40:00,
2013-09-07 01:45:00,63.5,50.3,29.84,North,0,0.0,0.0,62,0.00,,,-99.99,Custom,2013-09-07 08:45:00,
2013-09-07 01:46:00,63.7,51.7,29.84,North,0,0.0,0.0,65,0.00,,,-99.99,Custom,2013-09-07 08:46:00,
2013-09-07 01:50:00,63.4,49.7,29.84,North,0,0.0,0.0,61,0.00,,,-99.99,Custom,2013-09-07 08:50:00,
2013-09-07 01:56:00,63.4,49.7,29.84,North,0,0.0,0.0,61,0.00,,,-99.99,Custom,2013-09-07 08:56:00,
2013-09-07 02:00:00,63.2,49.5,29.83,North,0,0.0,0.0,61,0.00,,,-99.99,Custom,2013-09-07 09:00:00,
2013-09-07 02:06:00,63.2,49.5,29.83,North,0,0.0,0.0,61,0.00,,,-99.99,Custom,2013-09-07 09:06:00,
2013-09-07 02:10:00,62.9,49.3,29.83,North,0,0.0,0.0,61,0.00,,,-99.99,Custom,2013-09-07 09:10:00,
2013-09-07 02:11:00,62.9,49.3,29.83,North,0,0.0,0.0,61,0.00,,,-99.99,Custom,2013-09-07 09:11:00,
2013-09-07 02:15:00,62.8,49.2,29.83,North,0,0.0,0.0,61,0.00,,,-99.99,Custom,2013-09-07 09:15:00,
2013-09-07 02:16:00,62.9,49.3,29.83,North,0,0.0,0.0,61,0.00,,,-99.99,Custom,2013-09-07 09:16:00,
2013-09-07 02:20:00,62.6,49.0,29.83,North,0,0.0,0.0,61,0.00,,,-99.99,Custom,2013-09-07 09:20:00,
2013-09-07 02:25:00,62.5,44.7,29.83,North,0,0.0,0.0,52,0.00,,,-99.99,Custom,2013-09-07 09:25:00,
2013-09-07 02:26:00,62.6,49.0,29.83,North,0,0.0,0.0,61,0.00,,,-99.99,Custom,2013-09-07 09:26:00,
2013-09-07 02:30:00,62.4,44.6,29.83,North,0,0.0,0.0,52,0.00,,,-99.99,Custom,2013-09-07 09:30:00,
2013-09-07 02:31:00,62.5,44.7,29.83,North,0,0.0,0.0,52,0.00,,,-99.99,Custom,2013-09-07 09:31:00,
2013-09-07 02:35:00,62.3,44.5,29.83,North,0,0.0,0.0,52,0.00,,,-99.99,Custom,2013-09-07 09:35:00,
2013-09-07 02:40:00,62.2,44.4,29.83,North,0,0.0,0.0,52,0.00,,,-99.99,Custom,2013-09-07 09:40:00,
2013-09-07 02:41:00,62.3,44.5,29.83,North,0,0.0,0.0,52,0.00,,,-99.99,Custom,2013-09-07 09:41:00,
2013-09-07 02:45:00,62.1,45.3,29.83,North,0,0.0,0.0,54,0.00,,,-99.99,Custom,2013-09-07 09:45:00,
2013-09-07 02:50:00,62.0,45.2,29.83,North,0,0.0,0.0,54,0.00,,,-99.99,Custom,2013-09-07 09:50:00,
2013-09-07 02:51:00,62.1,45.3,29.83,North,0,0.0,0.0,54,0.00,,,-99.99,Custom,2013-09-07 09:51:00,
2013-09-07 02:55:00,61.9,44.6,29.83,North,0,0.0,0.0,53,0.00,,,-99.99,Custom,2013-09-07 09:55:00,
2013-09-07 02:56:00,62.0,45.2,29.83,North,0,0.0,0.0,54,0.00,,,-99.99,Custom,2013-09-07 09:56:00,
2013-09-07 03:00:00,61.8,44.5,29.83,North,0,0.0,0.0,53,0.00,,,-99.99,Custom,2013-09-07 10:00:00,
2013-09-07 03:05:00,61.8,44.5,29.83,North,0,0.0,0.0,53,0.00,,,-99.99,Custom,2013-09-07 10:05:00,
2013-09-07 03:06:00,61.8,44.5,29.83,North,0,0.0,0.0,53,0.00,,,-99.99,Custom,2013-09-07 10:06:00,
2013-09-07 03:10:00,61.7,44.9,29.83,North,0,0.0,0.0,54,0.00,,,-99.99,Custom,2013-09-07 10:10:00,
2013-09-07 03:11:00,61.8,44.5,29.83,North,0,0.0,0.0,53,0.00,,,-99.99,Custom,2013-09-07 10:11:00,
2013-09-07 03:15:00,61.6,44.8,29.83,North,0,0.0,0.0,54,0.00,,,-99.99,Custom,2013-09-07 10:15:00,
2013-09-07 03:21:00,61.6,44.8,29.83,North,0,0.0,0.0,54,0.00,,,-99.99,Custom,2013-09-07 10:21:00,
2013-09-07 03:25:00,61.3,44.5,29.83,North,0,0.0,0.0,54,0.00,,,-99.99,Custom,2013-09-07 10:25:00,
2013-09-07 03:31:00,61.3,44.5,29.83,North,0,0.0,0.0,54,0.00,,,-99.99,Custom,2013-09-07 10:31:00,
2013-09-07 03:35:00,61.0,44.3,29.82,North,0,0.0,0.0,54,0.00,,,-99.99,Custom,2013-09-07 10:35:00,
2013-09-07 03:36:00,61.0,44.3,29.82,North,0,0.0,0.0,54,0.00,,,-99.99,Custom,2013-09-07 10:36:00,
2013-09-07 03:40:00,60.9,45.1,29.82,North,0,0.0,0.0,56,0.00,,,-99.99,Custom,2013-09-07 10:40:00,
2013-09-07 03:41:00,61.0,44.3,29.82,North,0,0.0,0.0,54,0.00,,,-99.99,Custom,2013-09-07 10:41:00,
2013-09-07 03:45:00,60.8,45.0,29.82,North,0,0.0,0.0,56,0.00,,,-99.99,Custom,2013-09-07 10:45:00,
2013-09-07 03:46:00,60.9,45.1,29.82,North,0,0.0,0.0,56,0.00,,,-99.99,Custom,2013-09-07 10:46:00,
2013-09-07 03:50:00,60.8,45.5,29.82,North,0,0.0,0.0,57,0.00,,,-99.99,Custom,2013-09-07 10:50:00,
2013-09-07 03:56:00,60.8,45.5,29.82,North,0,0.0,0.0,57,0.00,,,-99.99,Custom,2013-09-07 10:56:00,
2013-09-07 04:00:00,60.7,45.9,29.82,North,0,0.0,0.0,58,0.00,,,-99.99,Custom,2013-09-07 11:00:00,
2013-09-07 04:06:00,60.7,45.9,29.82,North,0,0.0,0.0,58,0.00,,,-99.99,Custom,2013-09-07 11:06:00,
2013-09-07 04:10:00,60.5,45.7,29.82,North,0,0.0,0.0,58,0.00,,,-99.99,Custom,2013-09-07 11:10:00,
2013-09-07 04:16:00,60.5,45.7,29.82,North,0,0.0,0.0,58,0.00,,,-99.99,Custom,2013-09-07 11:16:00,
2013-09-07 04:20:00,60.2,45.4,29.82,North,0,0.0,0.0,58,0.00,,,-99.99,Custom,2013-09-07 11:20:00,
2013-09-07 04:21:00,60.2,45.4,29.82,North,0,0.0,0.0,58,0.00,,,-99.99,Custom,2013-09-07 11:21:00,
2013-09-07 04:25:00,60.1,45.3,29.82,North,0,0.0,0.0,58,0.00,,,-99.99,Custom,2013-09-07 11:25:00,
2013-09-07 04:31:00,60.1,45.3,29.82,North,0,0.0,0.0,58,0.00,,,-99.99,Custom,2013-09-07 11:31:00,
2013-09-07 04:35:00,59.8,44.6,29.81,North,0,0.0,0.0,57,0.00,,,-99.99,Custom,2013-09-07 11:35:00,
2013-09-07 04:36:00,59.8,44.6,29.81,North,0,0.0,0.0,57,0.00,,,-99.99,Custom,2013-09-07 11:36:00,
2013-09-07 04:40:00,59.7,44.9,29.82,North,0,0.0,0.0,58,0.00,,,-99.99,Custom,2013-09-07 11:40:00,
2013-09-07 04:41:00,59.8,44.6,29.81,North,0,0.0,0.0,57,0.00,,,-99.99,Custom,2013-09-07 11:41:00,
2013-09-07 04:45:00,59.6,45.3,29.81,North,0,0.0,0.0,59,0.00,,,-99.99,Custom,2013-09-07 11:45:00,
2013-09-07 04:51:00,59.6,45.3,29.81,North,0,0.0,0.0,59,0.00,,,-99.99,Custom,2013-09-07 11:51:00,
2013-09-07 04:55:00,59.5,46.9,29.82,North,0,0.0,0.0,63,0.00,,,-99.99,Custom,2013-09-07 11:55:00,
2013-09-07 05:01:00,59.5,46.9,29.82,North,0,0.0,0.0,63,0.00,,,-99.99,Custom,2013-09-07 12:01:00,
2013-09-07 05:05:00,59.2,47.0,29.82,North,0,0.0,0.0,64,0.00,,,-99.99,Custom,2013-09-07 12:05:00,
2013-09-07 05:11:00,59.2,47.0,29.82,North,0,0.0,0.0,64,0.00,,,-99.99,Custom,2013-09-07 12:11:00,
2013-09-07 05:15:00,59.0,46.9,29.82,North,0,0.0,0.0,64,0.00,,,-99.99,Custom,2013-09-07 12:15:00,
2013-09-07 05:16:00,59.0,46.9,29.82,North,0,0.0,0.0,64,0.00,,,-99.99,Custom,2013-09-07 12:16:00,
2013-09-07 05:20:00,58.9,46.3,29.82,North,0,0.0,0.0,63,0.00,,,-99.99,Custom,2013-09-07 12:20:00,
2013-09-07 05:26:00,58.9,46.3,29.82,North,0,0.0,0.0,63,0.00,,,-99.99,Custom,2013-09-07 12:26:00,
2013-09-07 05:30:00,58.7,46.6,29.82,North,0,0.0,0.0,64,0.00,,,-99.99,Custom,2013-09-07 12:30:00,
2013-09-07 05:36:00,58.7,46.6,29.82,North,0,0.0,0.0,64,0.00,,,-99.99,Custom,2013-09-07 12:36:00,
2013-09-07 05:40:00,58.5,46.8,29.82,North,0,0.0,0.0,65,0.00,,,-99.99,Custom,2013-09-07 12:40:00,
2013-09-07 05:45:00,58.4,46.3,29.82,North,0,0.0,0.0,64,0.00,,,-99.99,Custom,2013-09-07 12:45:00,
2013-09-07 05:46:00,58.5,46.8,29.82,North,0,0.0,0.0,65,0.00,,,-99.99,Custom,2013-09-07 12:46:00,
2013-09-07 05:50:00,58.4,46.3,29.82,North,0,0.0,0.0,64,0.00,,,-99.99,Custom,2013-09-07 12:50:00,
2013-09-07 05:51:00,58.4,46.3,29.82,North,0,0.0,0.0,64,0.00,,,-99.99,Custom,2013-09-07 12:51:00,
2013-09-07 05:55:00,58.3,46.6,29.82,North,0,0.0,0.0,65,0.00,,,-99.99,Custom,2013-09-07 12:55:00,
2013-09-07 06:01:00,58.3,46.6,29.82,North,0,0.0,0.0,65,0.00,,,-99.99,Custom,2013-09-07 13:01:00,
2013-09-07 06:05:00,58.1,46.4,29.83,North,0,0.0,0.0,65,0.00,,,-99.99,Custom,2013-09-07 13:05:00,
2013-09-07 06:11:00,58.1,46.4,29.83,North,0,0.0,0.0,65,0.00,,,-99.99,Custom,2013-09-07 13:11:00,
2013-09-07 06:15:00,57.9,46.6,29.83,North,0,0.0,0.0,66,0.00,,,-99.99,Custom,2013-09-07 13:15:00,
2013-09-07 06:20:00,57.8,46.1,29.83,North,0,0.0,0.0,65,0.00,,,-99.99,Custom,2013-09-07 13:20:00,
2013-09-07 06:21:00,57.9,46.6,29.83,North,0,0.0,0.0,66,0.00,,,-99.99,Custom,2013-09-07 13:21:00,
2013-09-07 06:25:00,57.7,46.4,29.83,North,0,0.0,0.0,66,0.00,,,-99.99,Custom,2013-09-07 13:25:00,
2013-09-07 06:31:00,57.7,46.4,29.83,North,0,0.0,0.0,66,0.00,,,-99.99,Custom,2013-09-07 13:31:00,
2013-09-07 06:35:00,57.6,46.3,29.83,North,0,0.0,0.0,66,0.00,,,-99.99,Custom,2013-09-07 13:35:00,
2013-09-07 06:41:00,57.6,46.3,29.83,North,0,0.0,0.0,66,0.00,,,-99.99,Custom,2013-09-07 13:41:00,
2013-09-07 06:45:00,57.5,46.6,29.83,North,0,0.0,0.0,67,0.00,,,-99.99,Custom,2013-09-07 13:45:00,
2013-09-07 06:51:00,57.5,46.6,29.83,North,0,0.0,0.0,67,0.00,,,-99.99,Custom,2013-09-07 13:51:00,
2013-09-07 06:55:00,57.3,46.5,29.84,North,0,0.0,0.0,67,0.00,,,-99.99,Custom,2013-09-07 13:55:00,
2013-09-07 07:01:00,57.3,46.5,29.84,North,0,0.0,0.0,67,0.00,,,-99.99,Custom,2013-09-07 14:01:00,
2013-09-07 07:05:00,57.3,46.8,29.84,North,0,0.0,0.0,68,0.00,,,-99.99,Custom,2013-09-07 14:05:00,
2013-09-07 07:06:00,57.3,46.8,29.84,North,0,0.0,0.0,68,0.00,,,-99.99,Custom,2013-09-07 14:06:00,
2013-09-07 07:10:00,57.4,46.9,29.84,North,0,0.0,0.0,68,0.00,,,-99.99,Custom,2013-09-07 14:10:00,
2013-09-07 07:16:00,57.4,46.9,29.84,North,0,0.0,0.0,68,0.00,,,-99.99,Custom,2013-09-07 14:16:00,
2013-09-07 07:20:00,57.5,47.0,29.84,North,0,0.0,0.0,68,0.00,,,-99.99,Custom,2013-09-07 14:20:00,
2013-09-07 07:21:00,57.5,47.0,29.84,North,0,0.0,0.0,68,0.00,,,-99.99,Custom,2013-09-07 14:21:00,
2013-09-07 07:25:00,57.7,47.6,29.85,North,0,0.0,0.0,69,0.00,,,-99.99,Custom,2013-09-07 14:25:00,
2013-09-07 07:31:00,57.7,47.6,29.85,North,0,0.0,0.0,69,0.00,,,-99.99,Custom,2013-09-07 14:31:00,
2013-09-07 07:35:00,58.0,47.9,29.85,North,0,0.0,0.0,69,0.00,,,-99.99,Custom,2013-09-07 14:35:00,
2013-09-07 07:36:00,58.0,47.9,29.85,North,0,0.0,0.0,69,0.00,,,-99.99,Custom,2013-09-07 14:36:00,
2013-09-07 07:40:00,58.2,47.7,29.85,North,0,0.0,0.0,68,0.00,,,-99.99,Custom,2013-09-07 14:40:00,
2013-09-07 07:46:00,58.2,47.7,29.85,North,0,0.0,0.0,68,0.00,,,-99.99,Custom,2013-09-07 14:46:00,
2013-09-07 07:50:00,58.8,47.9,29.85,North,0,0.0,0.0,67,0.00,,,-99.99,Custom,2013-09-07 14:50:00,
2013-09-07 07:56:00,58.8,47.9,29.85,North,0,0.0,0.0,67,0.00,,,-99.99,Custom,2013-09-07 14:56:00,
2013-09-07 08:00:00,59.9,47.3,29.84,North,0,0.0,0.0,63,0.00,,,-99.99,Custom,2013-09-07 15:00:00,
2013-09-07 08:05:00,60.6,48.0,29.85,North,0,0.0,0.0,63,0.00,,,-99.99,Custom,2013-09-07 15:05:00,
2013-09-07 08:06:00,59.9,47.3,29.84,North,0,0.0,0.0,63,0.00,,,-99.99,Custom,2013-09-07 15:06:00,
2013-09-07 08:10:00,61.4,47.8,29.84,North,0,0.0,0.0,61,0.00,,,-99.99,Custom,2013-09-07 15:10:00,
2013-09-07 08:15:00,62.1,47.6,29.84,North,0,0.0,0.0,59,0.00,,,-99.99,Custom,2013-09-07 15:15:00,
2013-09-07 08:16:00,61.4,47.8,29.84,North,0,0.0,0.0,61,0.00,,,-99.99,Custom,2013-09-07 15:16:00,
2013-09-07 08:20:00,63.0,47.5,29.84,North,0,0.0,0.0,57,0.00,,,-99.99,Custom,2013-09-07 15:20:00,
2013-09-07 08:26:00,63.0,47.5,29.84,North,0,0.0,0.0,57,0.00,,,-99.99,Custom,2013-09-07 15:26:00,
2013-09-07 08:30:00,64.6,49.0,29.85,North,0,0.0,0.0,57,0.00,,,-99.99,Custom,2013-09-07 15:30:00,
2013-09-07 08:36:00,64.6,49.0,29.85,North,0,0.0,0.0,57,0.00,,,-99.99,Custom,2013-09-07 15:36:00,
2013-09-07 08:40:00,66.0,49.4,29.85,North,0,0.0,0.0,55,0.00,,,-99.99,Custom,2013-09-07 15:40:00,
2013-09-07 08:46:00,66.0,49.4,29.85,North,0,0.0,0.0,55,0.00,,,-99.99,Custom,2013-09-07 15:46:00,
2013-09-07 08:50:00,67.9,49.1,29.85,North,0,0.0,0.0,51,0.00,,,-99.99,Custom,2013-09-07 15:50:00,
2013-09-07 08:56:00,67.9,49.1,29.85,North,0,0.0,0.0,51,0.00,,,-99.99,Custom,2013-09-07 15:56:00,
2013-09-07 09:00:00,72.1,48.4,29.85,North,0,0.0,0.0,43,0.00,,,-99.99,Custom,2013-09-07 16:00:00,
2013-09-07 09:06:00,72.1,48.4,29.85,North,0,0.0,0.0,43,0.00,,,-99.99,Custom,2013-09-07 16:06:00,
2013-09-07 09:10:00,73.4,50.8,29.85,North,0,0.0,0.0,45,0.00,,,-99.99,Custom,2013-09-07 16:10:00,
2013-09-07 09:16:00,73.4,50.8,29.85,North,0,0.0,0.0,45,0.00,,,-99.99,Custom,2013-09-07 16:16:00,
2013-09-07 09:20:00,73.5,50.9,29.85,North,0,0.0,0.0,45,0.00,,,-99.99,Custom,2013-09-07 16:20:00,
2013-09-07 09:21:00,73.5,50.9,29.85,North,0,0.0,0.0,45,0.00,,,-99.99,Custom,2013-09-07 16:21:00,
2013-09-07 09:25:00,74.0,50.1,29.85,North,0,0.0,0.0,43,0.00,,,-99.99,Custom,2013-09-07 16:25:00,
2013-09-07 09:30:00,74.5,51.8,29.85,North,0,0.0,0.0,45,0.00,,,-99.99,Custom,2013-09-07 16:30:00,
2013-09-07 09:31:00,74.0,50.1,29.85,North,0,0.0,0.0,43,0.00,,,-99.99,Custom,2013-09-07 16:31:00,
2013-09-07 09:36:00,74.5,51.8,29.85,North,0,0.0,0.0,45,0.00,,,-99.99,Custom,2013-09-07 16:36:00,
2013-09-07 09:40:00,76.1,52.6,29.85,North,0,0.0,0.0,44,0.00,,,-99.99,Custom,2013-09-07 16:40:00,
2013-09-07 09:46:00,76.1,52.6,29.85,North,0,0.0,0.0,44,0.00,,,-99.99,Custom,2013-09-07 16:46:00,
2013-09-07 09:50:00,79.2,54.2,29.85,North,0,0.0,0.0,42,0.00,,,-99.99,Custom,2013-09-07 16:50:00,
2013-09-07 09:51:00,79.2,54.2,29.85,North,0,0.0,0.0,42,0.00,,,-99.99,Custom,2013-09-07 16:51:00,
2013-09-07 09:55:00,82.2,50.3,29.85,North,0,0.0,0.0,33,0.00,,,-99.99,Custom,2013-09-07 16:55:00,
2013-09-07 10:01:00,82.2,50.3,29.85,North,0,0.0,0.0,33,0.00,,,-99.99,Custom,2013-09-07 17:01:00,
2013-09-07 10:05:00,88.8,50.5,29.85,North,0,0.0,0.0,27,0.00,,,-99.99,Custom,2013-09-07 17:05:00,
2013-09-07 10:11:00,88.8,50.5,29.85,North,0,0.0,0.0,27,0.00,,,-99.99,Custom,2013-09-07 17:11:00,
2013-09-07 10:15:00,86.9,53.5,29.85,North,0,0.0,0.0,32,0.00,,,-99.99,Custom,2013-09-07 17:15:00,
2013-09-07 10:20:00,85.8,53.4,29.85,North,0,0.0,0.0,33,0.00,,,-99.99,Custom,2013-09-07 17:20:00,
2013-09-07 10:21:00,86.9,53.5,29.85,North,0,0.0,0.0,32,0.00,,,-99.99,Custom,2013-09-07 17:21:00,
2013-09-07 10:25:00,85.3,52.1,29.85,North,0,0.0,0.0,32,0.00,,,-99.99,Custom,2013-09-07 17:25:00,
2013-09-07 10:31:00,85.3,52.1,29.85,North,0,0.0,0.0,32,0.00,,,-99.99,Custom,2013-09-07 17:31:00,
2013-09-07 10:35:00,86.1,52.8,29.85,North,0,0.0,0.0,32,0.00,,,-99.99,Custom,2013-09-07 17:35:00,
2013-09-07 10:41:00,86.1,52.8,29.85,North,0,0.0,0.0,32,0.00,,,-99.99,Custom,2013-09-07 17:41:00,
2013-09-07 10:45:00,86.4,53.9,29.85,North,0,0.0,0.0,33,0.00,,,-99.99,Custom,2013-09-07 17:45:00,
2013-09-07 10:50:00,87.3,51.2,29.85,North,0,0.0,0.0,29,0.00,,,-99.99,Custom,2013-09-07 17:50:00,
2013-09-07 10:51:00,86.4,53.9,29.85,North,0,0.0,0.0,33,0.00,,,-99.99,Custom,2013-09-07 17:51:00,
2013-09-07 10:55:00,89.0,50.7,29.85,North,0,0.0,0.0,27,0.00,,,-99.99,Custom,2013-09-07 17:55:00,
2013-09-07 11:01:00,89.0,50.7,29.85,North,0,0.0,0.0,27,0.00,,,-99.99,Custom,2013-09-07 18:01:00,
2013-09-07 11:05:00,89.3,52.0,29.85,North,0,0.0,0.0,28,0.00,,,-99.99,Custom,2013-09-07 18:05:00,
2013-09-07 11:11:00,89.3,52.0,29.85,North,0,0.0,0.0,28,0.00,,,-99.99,Custom,2013-09-07 18:11:00,
2013-09-07 11:15:00,90.5,53.0,29.84,North,0,0.0,0.0,28,0.00,,,-99.99,Custom,2013-09-07 18:15:00,
2013-09-07 11:21:00,90.5,53.0,29.84,North,0,0.0,0.0,28,0.00,,,-99.99,Custom,2013-09-07 18:21:00,
2013-09-07 11:25:00,96.1,53.5,29.84,North,0,0.0,0.0,24,0.00,,,-99.99,Custom,2013-09-07 18:25:00,
2013-09-07 11:30:00,98.8,54.6,29.84,North,0,0.0,0.0,23,0.00,,,-99.99,Custom,2013-09-07 18:30:00,
2013-09-07 11:31:00,96.1,53.5,29.84,North,0,0.0,0.0,24,0.00,,,-99.99,Custom,2013-09-07 18:31:00,
2013-09-07 11:36:00,98.8,54.6,29.84,North,0,0.0,0.0,23,0.00,,,-99.99,Custom,2013-09-07 18:36:00,
2013-09-07 11:40:00,101.5,54.3,29.84,North,0,0.0,0.0,21,0.00,,,-99.99,Custom,2013-09-07 18:40:00,
2013-09-07 11:46:00,101.5,54.3,29.84,North,0,0.0,0.0,21,0.00,,,-99.99,Custom,2013-09-07 18:46:00,
2013-09-07 11:50:00,101.3,55.4,29.84,North,0,0.0,3.0,22,0.00,,,-99.99,Custom,2013-09-07 18:50:00,
2013-09-07 11:55:00,99.0,55.9,29.84,NNE,23,0.0,1.0,24,0.00,,,-99.99,Custom,2013-09-07 18:55:00,
2013-09-07 11:56:00,101.3,55.4,29.84,North,0,0.0,3.0,22,0.00,,,-99.99,Custom,2013-09-07 18:56:00,
2013-09-07 12:00:00,97.3,54.5,29.84,NNE,23,0.0,0.0,24,0.00,,,-99.99,Custom,2013-09-07 19:00:00,
2013-09-07 12:06:00,97.3,54.5,29.84,NNE,23,0.0,0.0,24,0.00,,,-99.99,Custom,2013-09-07 19:06:00,
2013-09-07 12:10:00,95.9,53.3,29.83,North,0,0.0,0.0,24,0.00,,,-99.99,Custom,2013-09-07 19:10:00,
2013-09-07 12:15:00,96.3,53.7,29.83,North,0,0.0,0.0,24,0.00,,,-99.99,Custom,2013-09-07 19:15:00,
2013-09-07 12:16:00,95.9,53.3,29.83,North,0,0.0,0.0,24,0.00,,,-99.99,Custom,2013-09-07 19:16:00,
2013-09-07 12:20:00,96.8,54.1,29.83,North,0,0.0,0.0,24,0.00,,,-99.99,Custom,2013-09-07 19:20:00,
2013-09-07 12:21:00,96.3,53.7,29.83,North,0,0.0,0.0,24,0.00,,,-99.99,Custom,2013-09-07 19:21:00,
2013-09-07 12:25:00,96.6,53.9,29.83,North,0,0.0,0.0,24,0.00,,,-99.99,Custom,2013-09-07 19:25:00,
2013-09-07 12:31:00,96.6,53.9,29.83,North,0,0.0,0.0,24,0.00,,,-99.99,Custom,2013-09-07 19:31:00,
2013-09-07 12:35:00,95.7,54.3,29.83,North,0,0.0,0.0,25,0.00,,,-99.99,Custom,2013-09-07 19:35:00,
2013-09-07 12:41:00,95.7,54.3,29.83,North,0,0.0,0.0,25,0.00,,,-99.99,Custom,2013-09-07 19:41:00,
2013-09-07 12:45:00,95.5,54.1,29.82,North,0,0.0,0.0,25,0.00,,,-99.99,Custom,2013-09-07 19:45:00,
2013-09-07 12:51:00,95.5,54.1,29.82,North,0,0.0,0.0,25,0.00,,,-99.99,Custom,2013-09-07 19:51:00,
2013-09-07 12:55:00,95.8,54.4,29.82,NNE,23,0.0,1.0,25,0.00,,,-99.99,Custom,2013-09-07 19:55:00,
2013-09-07 13:01:00,95.8,54.4,29.82,NNE,23,0.0,1.0,25,0.00,,,-99.99,Custom,2013-09-07 20:01:00,
2013-09-07 13:05:00,96.1,53.5,29.81,NNE,23,0.0,0.0,24,0.00,,,-99.99,Custom,2013-09-07 20:05:00,
2013-09-07 13:11:00,96.1,53.5,29.81,NNE,23,0.0,0.0,24,0.00,,,-99.99,Custom,2013-09-07 20:11:00,
2013-09-07 13:15:00,96.2,54.7,29.81,North,0,0.0,2.0,25,0.00,,,-99.99,Custom,2013-09-07 20:15:00,
2013-09-07 13:21:00,96.2,54.7,29.81,North,0,0.0,2.0,25,0.00,,,-99.99,Custom,2013-09-07 20:21:00,
2013-09-07 13:25:00,96.1,54.6,29.81,North,0,0.0,3.0,25,0.00,,,-99.99,Custom,2013-09-07 20:25:00,
2013-09-07 13:31:00,96.1,54.6,29.81,North,0,0.0,3.0,25,0.00,,,-99.99,Custom,2013-09-07 20:31:00,
2013-09-07 13:35:00,96.2,55.8,29.81,North,0,0.0,3.0,26,0.00,,,-99.99,Custom,2013-09-07 20:35:00,
2013-09-07 13:41:00,96.2,55.8,29.81,North,0,0.0,3.0,26,0.00,,,-99.99,Custom,2013-09-07 20:41:00,
2013-09-07 13:45:00,96.2,54.7,29.80,North,0,0.0,1.0,25,0.00,,,-99.99,Custom,2013-09-07 20:45:00,
2013-09-07 13:46:00,96.2,54.7,29.80,North,0,0.0,1.0,25,0.00,,,-99.99,Custom,2013-09-07 20:46:00,
2013-09-07 13:50:00,96.2,54.7,29.80,North,0,0.0,0.0,25,0.00,,,-99.99,Custom,2013-09-07 20:50:00,
2013-09-07 13:56:00,96.2,54.7,29.80,North,0,0.0,0.0,25,0.00,,,-99.99,Custom,2013-09-07 20:56:00,
2013-09-07 14:00:00,96.2,54.7,29.80,NNW,338,0.0,1.0,25,0.00,,,-99.99,Custom,2013-09-07 21:00:00,
2013-09-07 14:01:00,96.2,54.7,29.80,NNW,338,0.0,1.0,25,0.00,,,-99.99,Custom,2013-09-07 21:01:00,
2013-09-07 14:05:00,96.1,53.5,29.80,North,0,1.0,4.0,24,0.00,,,-99.99,Custom,2013-09-07 21:05:00,
2013-09-07 14:06:00,96.2,54.7,29.80,NNW,338,0.0,1.0,25,0.00,,,-99.99,Custom,2013-09-07 21:06:00,
2013-09-07 14:10:00,96.1,54.6,29.80,North,0,0.0,1.0,25,0.00,,,-99.99,Custom,2013-09-07 21:10:00,
2013-09-07 14:16:00,96.1,54.6,29.80,North,0,0.0,1.0,25,0.00,,,-99.99,Custom,2013-09-07 21:16:00,
2013-09-07 14:20:00,95.8,53.3,29.79,North,0,0.0,0.0,24,0.00,,,-99.99,Custom,2013-09-07 21:20:00,
2013-09-07 14:26:00,95.8,53.3,29.79,North,0,0.0,0.0,24,0.00,,,-99.99,Custom,2013-09-07 21:26:00,
2013-09-07 14:30:00,95.9,54.5,29.78,North,0,0.0,0.0,25,0.00,,,-99.99,Custom,2013-09-07 21:30:00,
2013-09-07 14:36:00,95.9,54.5,29.78,North,0,0.0,0.0,25,0.00,,,-99.99,Custom,2013-09-07 21:36:00,
2013-09-07 14:40:00,95.8,54.4,29.78,NNE,23,0.0,2.0,25,0.00,,,-99.99,Custom,2013-09-07 21:40:00,
2013-09-07 14:46:00,95.8,54.4,29.78,NNE,23,0.0,2.0,25,0.00,,,-99.99,Custom,2013-09-07 21:46:00,
2013-09-07 14:50:00,95.7,53.2,29.78,North,0,0.0,3.0,24,0.00,,,-99.99,Custom,2013-09-07 21:50:00,
2013-09-07 14:56:00,95.7,53.2,29.78,North,0,0.0,3.0,24,0.00,,,-99.99,Custom,2013-09-07 21:56:00,
2013-09-07 15:00:00,95.5,53.0,29.78,NNW,338,0.0,2.0,24,0.00,,,-99.99,Custom,2013-09-07 22:00:00,
2013-09-07 15:05:00,95.3,52.8,29.78,North,0,0.0,1.0,24,0.00,,,-99.99,Custom,2013-09-07 22:05:00,
2013-09-07 15:06:00,95.5,53.0,29.78,NNW,338,0.0,2.0,24,0.00,,,-99.99,Custom,2013-09-07 22:06:00,
2013-09-07 15:10:00,95.1,53.8,29.78,North,0,0.0,2.0,25,0.00,,,-99.99,Custom,2013-09-07 22:10:00,
2013-09-07 15:15:00,95.0,53.7,29.77,North,0,0.0,3.0,25,0.00,,,-99.99,Custom,2013-09-07 22:15:00,
2013-09-07 15:16:00,95.1,53.8,29.78,North,0,0.0,2.0,25,0.00,,,-99.99,Custom,2013-09-07 22:16:00,
2013-09-07 15:20:00,94.9,53.6,29.77,North,0,0.0,4.0,25,0.00,,,-99.99,Custom,2013-09-07 22:20:00,
2013-09-07 15:25:00,94.9,53.6,29.77,North,0,0.0,0.0,25,0.00,,,-99.99,Custom,2013-09-07 22:25:00,
2013-09-07 15:26:00,94.9,53.6,29.77,North,0,0.0,4.0,25,0.00,,,-99.99,Custom,2013-09-07 22:26:00,
2013-09-07 15:30:00,94.8,53.5,29.77,NNW,338,0.0,1.0,25,0.00,,,-99.99,Custom,2013-09-07 22:30:00,
2013-09-07 15:31:00,94.9,53.6,29.77,North,0,0.0,0.0,25,0.00,,,-99.99,Custom,2013-09-07 22:31:00,
2013-09-07 15:35:00,94.7,53.4,29.77,NNE,23,0.0,2.0,25,0.00,,,-99.99,Custom,2013-09-07 22:35:00,
2013-09-07 15:41:00,94.7,53.4,29.77,NNE,23,0.0,2.0,25,0.00,,,-99.99,Custom,2013-09-07 22:41:00,
2013-09-07 15:45:00,94.6,53.4,29.77,NNE,23,0.0,0.0,25,0.00,,,-99.99,Custom,2013-09-07 22:45:00,
2013-09-07 15:51:00,94.6,53.4,29.77,NNE,23,0.0,0.0,25,0.00,,,-99.99,Custom,2013-09-07 22:51:00,
2013-09-07 15:55:00,94.6,53.4,29.77,NNE,23,0.0,1.0,25,0.00,,,-99.99,Custom,2013-09-07 22:55:00,
2013-09-07 16:01:00,94.6,53.4,29.77,NNE,23,0.0,1.0,25,0.00,,,-99.99,Custom,2013-09-07 23:01:00,
2013-09-07 16:05:00,94.6,53.4,29.76,WNW,293,0.0,1.0,25,0.00,,,-99.99,Custom,2013-09-07 23:05:00,
2013-09-07 16:10:00,94.5,53.3,29.77,WNW,293,0.0,2.0,25,0.00,,,-99.99,Custom,2013-09-07 23:10:00,
2013-09-07 16:11:00,94.6,53.4,29.76,WNW,293,0.0,1.0,25,0.00,,,-99.99,Custom,2013-09-07 23:11:00,
2013-09-07 16:15:00,94.4,54.3,29.76,NNW,338,0.0,2.0,26,0.00,,,-99.99,Custom,2013-09-07 23:15:00,
2013-09-07 16:16:00,94.5,53.3,29.77,WNW,293,0.0,2.0,25,0.00,,,-99.99,Custom,2013-09-07 23:16:00,
2013-09-07 16:21:00,94.4,54.3,29.76,NNW,338,0.0,2.0,26,0.00,,,-99.99,Custom,2013-09-07 23:21:00,
2013-09-07 16:25:00,94.3,53.1,29.76,North,0,0.0,0.0,25,0.00,,,-99.99,Custom,2013-09-07 23:25:00,
2013-09-07 16:30:00,94.1,52.9,29.76,WNW,293,0.0,2.0,25,0.00,,,-99.99,Custom,2013-09-07 23:30:00,
2013-09-07 16:31:00,94.3,53.1,29.76,NNW,338,0.0,0.0,25,0.00,,,-99.99,Custom,2013-09-07 23:31:00,
2013-09-07 16:35:00,94.1,54.0,29.76,North,0,0.0,5.0,26,0.00,,,-99.99,Custom,2013-09-07 23:35:00,
2013-09-07 16:36:00,94.1,52.9,29.76,WNW,293,0.0,2.0,25,0.00,,,-99.99,Custom,2013-09-07 23:36:00,
2013-09-07 16:40:00,94.0,53.9,29.77,North,0,0.0,1.0,26,0.00,,,-99.99,Custom,2013-09-07 23:40:00,
2013-09-07 16:45:00,93.9,52.8,29.77,WNW,293,0.0,1.0,25,0.00,,,-99.99,Custom,2013-09-07 23:45:00,
2013-09-07 16:46:00,94.0,53.9,29.77,North,0,0.0,1.0,26,0.00,,,-99.99,Custom,2013-09-07 23:46:00,
2013-09-07 16:50:00,93.6,52.5,29.77,West,270,0.0,2.0,25,0.00,,,-99.99,Custom,2013-09-07 23:50:00,
2013-09-07 16:51:00,93.9,52.8,29.77,WNW,293,0.0,1.0,25,0.00,,,-99.99,Custom,2013-09-07 23:51:00,
2013-09-07 16:55:00,93.3,53.3,29.77,NNE,23,0.0,3.0,26,0.00,,,-99.99,Custom,2013-09-07 23:55:00,
2013-09-07 17:01:00,93.3,53.3,29.77,NNE,23,0.0,3.0,26,0.00,,,-99.99,Custom,2013-09-08 00:01:00,
2013-09-07 17:05:00,92.9,53.0,29.77,WNW,293,0.0,2.0,26,0.00,,,-99.99,Custom,2013-09-08 00:05:00,
2013-09-07 17:06:00,92.9,53.0,29.77,WNW,293,0.0,2.0,26,0.00,,,-99.99,Custom,2013-09-08 00:06:00,
2013-09-07 17:10:00,92.6,52.7,29.77,NNW,338,0.0,4.0,26,0.00,,,-99.99,Custom,2013-09-08 00:10:00,
2013-09-07 17:15:00,92.4,51.5,29.77,WNW,293,0.0,4.0,25,0.00,,,-99.99,Custom,2013-09-08 00:15:00,
2013-09-07 17:16:00,92.6,52.7,29.77,NNW,338,0.0,4.0,26,0.00,,,-99.99,Custom,2013-09-08 00:16:00,
2013-09-07 17:20:00,92.1,52.3,29.77,WNW,293,0.0,0.0,26,0.00,,,-99.99,Custom,2013-09-08 00:20:00,
2013-09-07 17:26:00,92.1,52.3,29.77,WNW,293,0.0,0.0,26,0.00,,,-99.99,Custom,2013-09-08 00:26:00,
2013-09-07 17:30:00,91.9,52.2,29.77,North,0,0.0,4.0,26,0.00,,,-99.99,Custom,2013-09-08 00:30:00,
2013-09-07 17:36:00,91.9,52.2,29.77,North,0,0.0,4.0,26,0.00,,,-99.99,Custom,2013-09-08 00:36:00,
2013-09-07 17:40:00,91.4,51.7,29.77,NNW,338,0.0,1.0,26,0.00,,,-99.99,Custom,2013-09-08 00:40:00,
2013-09-07 17:41:00,91.4,51.7,29.77,NNW,338,0.0,1.0,26,0.00,,,-99.99,Custom,2013-09-08 00:41:00,
2013-09-07 17:45:00,91.3,51.6,29.77,NNW,338,0.0,0.0,26,0.00,,,-99.99,Custom,2013-09-08 00:45:00,
2013-09-07 17:51:00,91.3,51.6,29.77,NNW,338,0.0,0.0,26,0.00,,,-99.99,Custom,2013-09-08 00:51:00,
2013-09-07 17:55:00,91.0,50.3,29.78,North,0,0.0,4.0,25,0.00,,,-99.99,Custom,2013-09-08 00:55:00,
2013-09-07 18:00:00,90.9,51.3,29.77,North,0,0.0,0.0,26,0.00,,,-99.99,Custom,2013-09-08 01:00:00,
2013-09-07 18:01:00,91.0,50.3,29.78,North,0,0.0,4.0,25,0.00,,,-99.99,Custom,2013-09-08 01:01:00,
2013-09-07 18:05:00,90.8,51.2,29.77,North,0,0.0,1.0,26,0.00,,,-99.99,Custom,2013-09-08 01:05:00,
2013-09-07 18:11:00,90.8,51.2,29.77,North,0,0.0,1.0,26,0.00,,,-99.99,Custom,2013-09-08 01:11:00,
2013-09-07 18:15:00,90.4,51.9,29.78,North,0,0.0,1.0,27,0.00,,,-99.99,Custom,2013-09-08 01:15:00,
2013-09-07 18:21:00,90.4,51.9,29.78,North,0,0.0,1.0,27,0.00,,,-99.99,Custom,2013-09-08 01:21:00,
2013-09-07 18:25:00,90.1,51.6,29.78,North,0,0.0,1.0,27,0.00,,,-99.99,Custom,2013-09-08 01:25:00,
2013-09-07 18:31:00,90.1,51.6,29.78,North,0,0.0,1.0,27,0.00,,,-99.99,Custom,2013-09-08 01:31:00,
2013-09-07 18:35:00,89.7,52.3,29.78,North,0,0.0,0.0,28,0.00,,,-99.99,Custom,2013-09-08 01:35:00,
2013-09-07 18:41:00,89.7,52.3,29.78,North,0,0.0,0.0,28,0.00,,,-99.99,Custom,2013-09-08 01:41:00,
2013-09-07 18:45:00,89.3,52.9,29.78,North,0,0.0,0.0,29,0.00,,,-99.99,Custom,2013-09-08 01:45:00,
2013-09-07 18:50:00,89.0,53.6,29.78,North,0,0.0,0.0,30,0.00,,,-99.99,Custom,2013-09-08 01:50:00,
2013-09-07 18:51:00,89.3,52.9,29.78,North,0,0.0,0.0,29,0.00,,,-99.99,Custom,2013-09-08 01:51:00,
2013-09-07 18:55:00,88.6,54.1,29.78,North,0,0.0,0.0,31,0.00,,,-99.99,Custom,2013-09-08 01:55:00,
2013-09-07 19:01:00,88.6,54.1,29.78,North,0,0.0,0.0,31,0.00,,,-99.99,Custom,2013-09-08 02:01:00,
2013-09-07 19:05:00,87.7,55.1,29.79,North,0,0.0,0.0,33,0.00,,,-99.99,Custom,2013-09-08 02:05:00,
2013-09-07 19:06:00,87.7,55.1,29.79,North,0,0.0,0.0,33,0.00,,,-99.99,Custom,2013-09-08 02:06:00,
2013-09-07 19:10:00,87.3,54.7,29.79,North,0,0.0,0.0,33,0.00,,,-99.99,Custom,2013-09-08 02:10:00,
2013-09-07 19:16:00,87.3,54.7,29.79,North,0,0.0,0.0,33,0.00,,,-99.99,Custom,2013-09-08 02:16:00,
2013-09-07 19:20:00,86.3,53.8,29.79,North,0,0.0,0.0,33,0.00,,,-99.99,Custom,2013-09-08 02:20:00,
2013-09-07 19:21:00,86.3,53.8,29.79,North,0,0.0,0.0,33,0.00,,,-99.99,Custom,2013-09-08 02:21:00,
2013-09-07 19:25:00,85.8,54.2,29.79,North,0,0.0,0.0,34,0.00,,,-99.99,Custom,2013-09-08 02:25:00,
2013-09-07 19:31:00,85.8,54.2,29.79,North,0,0.0,0.0,34,0.00,,,-99.99,Custom,2013-09-08 02:31:00,
2013-09-07 19:35:00,84.8,54.1,29.79,North,0,0.0,0.0,35,0.00,,,-99.99,Custom,2013-09-08 02:35:00,
2013-09-07 19:41:00,84.8,54.1,29.79,North,0,0.0,0.0,35,0.00,,,-99.99,Custom,2013-09-08 02:41:00,
2013-09-07 19:45:00,84.0,55.0,29.80,North,0,0.0,0.0,37,0.00,,,-99.99,Custom,2013-09-08 02:45:00,
2013-09-07 19:51:00,84.0,55.0,29.80,North,0,0.0,0.0,37,0.00,,,-99.99,Custom,2013-09-08 02:51:00,
2013-09-07 19:55:00,83.3,55.8,29.80,North,0,0.0,0.0,39,0.00,,,-99.99,Custom,2013-09-08 02:55:00,
2013-09-07 20:01:00,83.3,55.8,29.80,North,0,0.0,0.0,39,0.00,,,-99.99,Custom,2013-09-08 03:01:00,
2013-09-07 20:05:00,82.5,55.1,29.81,North,0,0.0,0.0,39,0.00,,,-99.99,Custom,2013-09-08 03:05:00,
2013-09-07 20:11:00,82.5,55.1,29.81,North,0,0.0,0.0,39,0.00,,,-99.99,Custom,2013-09-08 03:11:00,
2013-09-07 20:15:00,81.7,55.7,29.81,North,0,0.0,0.0,41,0.00,,,-99.99,Custom,2013-09-08 03:15:00,
2013-09-07 20:16:00,81.7,55.7,29.81,North,0,0.0,0.0,41,0.00,,,-99.99,Custom,2013-09-08 03:16:00,
2013-09-07 20:20:00,81.3,56.0,29.81,North,0,0.0,0.0,42,0.00,,,-99.99,Custom,2013-09-08 03:20:00,
2013-09-07 20:22:00,81.7,55.7,29.81,North,0,0.0,0.0,41,0.00,,,-99.99,Custom,2013-09-08 03:22:00,
2013-09-07 20:25:00,80.9,56.3,29.82,NW,315,0.0,1.0,43,0.00,,,-99.99,Custom,2013-09-08 03:25:00,
2013-09-07 20:31:00,80.9,56.3,29.82,NW,315,0.0,1.0,43,0.00,,,-99.99,Custom,2013-09-08 03:31:00,
2013-09-07 20:35:00,80.3,55.8,29.83,NW,315,0.0,0.0,43,0.00,,,-99.99,Custom,2013-09-08 03:35:00,
2013-09-07 20:41:00,80.3,55.8,29.83,NW,315,0.0,0.0,43,0.00,,,-99.99,Custom,2013-09-08 03:41:00,
2013-09-07 20:45:00,79.6,55.2,29.83,NW,315,0.0,0.0,43,0.00,,,-99.99,Custom,2013-09-08 03:45:00,
2013-09-07 20:51:00,79.6,55.2,29.83,NW,315,0.0,0.0,43,0.00,,,-99.99,Custom,2013-09-08 03:51:00,
2013-09-07 20:55:00,79.0,55.9,29.83,North,0,0.0,0.0,45,0.00,,,-99.99,Custom,2013-09-08 03:55:00,
2013-09-07 21:01:00,79.0,55.9,29.83,North,0,0.0,0.0,45,0.00,,,-99.99,Custom,2013-09-08 04:01:00,
2013-09-07 21:05:00,78.4,55.9,29.83,North,0,0.0,0.0,46,0.00,,,-99.99,Custom,2013-09-08 04:05:00,
2013-09-07 21:11:00,78.4,55.9,29.83,North,0,0.0,0.0,46,0.00,,,-99.99,Custom,2013-09-08 04:11:00,
2013-09-07 21:15:00,77.9,56.1,29.84,North,0,0.0,0.0,47,0.00,,,-99.99,Custom,2013-09-08 04:15:00,
2013-09-07 21:16:00,77.9,56.1,29.84,North,0,0.0,0.0,47,0.00,,,-99.99,Custom,2013-09-08 04:16:00,
2013-09-07 21:20:00,77.5,55.7,29.84,North,0,0.0,0.0,47,0.00,,,-99.99,Custom,2013-09-08 04:20:00,
2013-09-07 21:26:00,77.5,55.7,29.84,North,0,0.0,0.0,47,0.00,,,-99.99,Custom,2013-09-08 04:26:00,
2013-09-07 21:30:00,76.8,55.6,29.84,North,0,0.0,0.0,48,0.00,,,-99.99,Custom,2013-09-08 04:30:00,
2013-09-07 21:36:00,76.8,55.6,29.84,North,0,0.0,0.0,48,0.00,,,-99.99,Custom,2013-09-08 04:36:00,
2013-09-07 21:40:00,76.2,55.7,29.84,North,0,0.0,0.0,49,0.00,,,-99.99,Custom,2013-09-08 04:40:00,
2013-09-07 21:45:00,75.8,55.9,29.84,North,0,0.0,0.0,50,0.00,,,-99.99,Custom,2013-09-08 04:45:00,
2013-09-07 21:46:00,76.2,55.7,29.84,North,0,0.0,0.0,49,0.00,,,-99.99,Custom,2013-09-08 04:46:00,
2013-09-07 21:50:00,75.4,56.0,29.84,North,0,0.0,0.0,51,0.00,,,-99.99,Custom,2013-09-08 04:50:00,
2013-09-07 21:56:00,75.4,56.0,29.84,North,0,0.0,0.0,51,0.00,,,-99.99,Custom,2013-09-08 04:56:00,
2013-09-07 22:00:00,74.9,55.6,29.85,North,0,0.0,0.0,51,0.00,,,-99.99,Custom,2013-09-08 05:00:00,
2013-09-07 22:06:00,74.9,55.6,29.85,North,0,0.0,0.0,51,0.00,,,-99.99,Custom,2013-09-08 05:06:00,
2013-09-07 22:10:00,74.4,55.1,29.85,North,0,0.0,0.0,51,0.00,,,-99.99,Custom,2013-09-08 05:10:00,
2013-09-07 22:15:00,74.1,54.8,29.85,North,0,0.0,0.0,51,0.00,,,-99.99,Custom,2013-09-08 05:15:00,
2013-09-07 22:16:00,74.4,55.1,29.85,North,0,0.0,0.0,51,0.00,,,-99.99,Custom,2013-09-08 05:16:00,
2013-09-07 22:20:00,73.8,55.1,29.85,North,0,0.0,0.0,52,0.00,,,-99.99,Custom,2013-09-08 05:20:00,
2013-09-07 22:26:00,73.8,55.1,29.85,North,0,0.0,0.0,52,0.00,,,-99.99,Custom,2013-09-08 05:26:00,
2013-09-07 22:30:00,73.4,55.2,29.84,North,0,0.0,0.0,53,0.00,,,-99.99,Custom,2013-09-08 05:30:00,
2013-09-07 22:35:00,73.2,55.1,29.85,North,0,0.0,0.0,53,0.00,,,-99.99,Custom,2013-09-08 05:35:00,
2013-09-07 22:41:00,73.2,55.1,29.85,North,0,0.0,0.0,53,0.00,,,-99.99,Custom,2013-09-08 05:41:00,
2013-09-07 22:45:00,72.5,54.4,29.85,North,0,0.0,0.0,53,0.00,,,-99.99,Custom,2013-09-08 05:45:00,
2013-09-07 22:50:00,72.2,54.1,29.85,North,0,0.0,0.0,53,0.00,,,-99.99,Custom,2013-09-08 05:50:00,
2013-09-07 22:51:00,72.5,54.4,29.85,North,0,0.0,0.0,53,0.00,,,-99.99,Custom,2013-09-08 05:51:00,
2013-09-07 22:55:00,71.9,54.4,29.85,North,0,0.0,0.0,54,0.00,,,-99.99,Custom,2013-09-08 05:55:00,
2013-09-07 23:01:00,71.9,54.4,29.85,North,0,0.0,0.0,54,0.00,,,-99.99,Custom,2013-09-08 06:01:00,
2013-09-07 23:05:00,71.4,53.9,29.84,North,0,0.0,0.0,54,0.00,,,-99.99,Custom,2013-09-08 06:05:00,
2013-09-07 23:06:00,71.4,53.9,29.84,North,0,0.0,0.0,54,0.00,,,-99.99,Custom,2013-09-08 06:06:00,
2013-09-07 23:10:00,71.1,54.1,29.85,North,0,0.0,0.0,55,0.00,,,-99.99,Custom,2013-09-08 06:10:00,
2013-09-07 23:16:00,71.1,54.1,29.85,North,0,0.0,0.0,55,0.00,,,-99.99,Custom,2013-09-08 06:16:00,
2013-09-07 23:20:00,70.6,54.6,29.84,North,0,0.0,0.0,57,0.00,,,-99.99,Custom,2013-09-08 06:20:00,
2013-09-07 23:26:00,70.6,54.6,29.84,North,0,0.0,0.0,57,0.00,,,-99.99,Custom,2013-09-08 06:26:00,
2013-09-07 23:30:00,70.1,54.2,29.85,North,0,0.0,0.0,57,0.00,,,-99.99,Custom,2013-09-08 06:30:00,
2013-09-07 23:31:00,70.1,54.2,29.85,North,0,0.0,0.0,57,0.00,,,-99.99,Custom,2013-09-08 06:31:00,
2013-09-07 23:35:00,70.0,54.1,29.84,North,0,0.0,0.0,57,0.00,,,-99.99,Custom,2013-09-08 06:35:00,
2013-09-07 23:36:00,70.1,54.2,29.85,North,0,0.0,0.0,57,0.00,,,-99.99,Custom,2013-09-08 06:36:00,
2013-09-07 23:40:00,69.7,54.3,29.84,North,0,0.0,0.0,58,0.00,,,-99.99,Custom,2013-09-08 06:40:00,
2013-09-07 23:41:00,70.0,54.1,29.84,North,0,0.0,0.0,57,0.00,,,-99.99,Custom,2013-09-08 06:41:00,
2013-09-07 23:45:00,69.5,54.1,29.84,North,0,0.0,0.0,58,0.00,,,-99.99,Custom,2013-09-08 06:45:00,
2013-09-07 23:51:00,69.5,54.1,29.84,North,0,0.0,0.0,58,0.00,,,-99.99,Custom,2013-09-08 06:51:00,
2013-09-07 23:55:00,69.0,54.1,29.85,North,0,0.0,0.0,59,0.00,,,-99.99,Custom,2013-09-08 06:55:00,
2013-09-07 23:56:00,69.0,54.1,29.85,North,0,0.0,0.0,59,0.00,,,-99.99,Custom,2013-09-08 06:56:00,